Marshalltown, IA

11:39 AM CST on November 22, 2019 (GMT -0600)
Marshalltown Municipal

Weather History for KMIW - September, 2019

Change the Weather History Date:

Saturday, September 28, 2019

  Actual Average Record
Temperature  
Mean Temperature 61 °F 57 °F  
Max Temperature 70 °F 70 °F 83 °F (2015)
Min Temperature 51 °F 45 °F 33 °F (2003)
Degree Days  
Heating Degree Days 4 9  
Month to date heating degree days 36 119  
Since 1 July heating degree days 46 140  
Cooling Degree Days 0 1  
Month to date cooling degree days 118 60  
Year to date cooling degree days 718 716  
Growing Degree Days 10 (Base 50)    
Moisture  
Dew Point 55 °F    
Average Humidity 83    
Maximum Humidity 100    
Minimum Humidity 66    
Precipitation  
Precipitation 0.06 in 0.09 in 0.23 in (2005)
Month to date precipitation 4.86 3.18  
Sea Level Pressure  
Sea Level Pressure 30.06 in    
Wind  
Wind Speed 12 mph (ENE)    
Max Wind Speed 22 mph    
Max Gust Speed 29 mph    
Visibility 10 miles    
Events Rain    
T = Trace of Precipitation, MM = Missing Value Source: NWS Daily Summary

Daily Weather History Graph

Daily Weather History Graph

Search for Another Location

Airport or City:

Astronomy

Sep. 28, 2019 Rise Set
Actual Time 7:05 AM CDT 6:58 PM CDT
Civil Twilight 6:37 AM CDT 7:26 PM CDT
Nautical Twilight 6:04 AM CDT 7:59 PM CDT
Astronomical Twilight 5:31 AM CDT 8:31 PM CDT
Moon 6:40 AM CDT (9/28) 7:25 PM CDT (9/28)
Length of Visible Light 12h 49m
Length of Day
11h 53m
Waning Crescent, 0% of the Moon is Illuminated
Sep 28
Waning Crescent
Sep 28
New
Oct 5
First Quarter
Oct 13
Full
Oct 21
Last Quarter

Hourly Weather History & Observations

Time (CDT) Temp. Dew Point Humidity Pressure Visibility Wind Dir Wind Speed Gust Speed Precip Events Conditions
12:53 AM 55.9 °F 53.1 °F 90% 29.90 in 10.0 mi North 12.7 mph - N/A   Clear
1:53 AM 54.0 °F 52.0 °F 93% 29.92 in 10.0 mi North 10.4 mph - N/A   Clear
2:53 AM 53.1 °F 52.0 °F 96% 29.96 in 10.0 mi North 5.8 mph - N/A   Clear
3:53 AM 53.1 °F 52.0 °F 96% 29.99 in 10.0 mi NNW 8.1 mph - N/A   Clear
4:53 AM 51.1 °F 51.1 °F 100% 29.98 in 10.0 mi North 9.2 mph - N/A   Clear
5:53 AM 52.0 °F 51.1 °F 97% 30.00 in 10.0 mi North 9.2 mph - N/A   Clear
6:53 AM 51.1 °F 51.1 °F 100% 30.01 in 10.0 mi NE 4.6 mph - N/A   Clear
7:53 AM 52.0 °F 52.0 °F 100% 30.04 in 10.0 mi North 8.1 mph - N/A   Clear
8:53 AM 55.9 °F 53.1 °F 90% 30.08 in 10.0 mi NNE 6.9 mph - N/A   Partly Cloudy
9:53 AM 57.9 °F 54.0 °F 87% 30.07 in 10.0 mi NNE 11.5 mph - N/A   Partly Cloudy
10:53 AM 62.1 °F 55.9 °F 80% 30.09 in 10.0 mi ENE 12.7 mph - N/A   Clear
11:53 AM 64.9 °F 57.0 °F 75% 30.11 in 10.0 mi NE 12.7 mph 19.6 mph N/A   Partly Cloudy
12:53 PM 66.9 °F 57.0 °F 70% 30.09 in 10.0 mi ENE 12.7 mph - N/A   Partly Cloudy
1:53 PM 68.0 °F 57.9 °F 70% 30.09 in 10.0 mi NE 15.0 mph - N/A   Scattered Clouds
2:53 PM 69.1 °F 57.0 °F 65% 30.07 in 10.0 mi ENE 17.3 mph 21.9 mph N/A   Partly Cloudy
3:53 PM 66.9 °F 57.9 °F 73% 30.06 in 10.0 mi East 16.1 mph 25.3 mph N/A   Mostly Cloudy
4:53 PM 62.1 °F 57.0 °F 84% 30.09 in 10.0 mi East 16.1 mph 26.5 mph N/A   Overcast
5:53 PM 61.0 °F 55.9 °F 83% 30.09 in 10.0 mi East 13.8 mph 21.9 mph N/A   Overcast
6:42 PM 60.1 °F 55.9 °F 86% 30.09 in 10.0 mi ENE 11.5 mph 19.6 mph N/A   Overcast
6:53 PM 60.1 °F 55.9 °F 86% 30.09 in 10.0 mi East 13.8 mph 24.2 mph N/A   Overcast
7:07 PM 60.1 °F 55.9 °F 86% 30.09 in 10.0 mi ENE 17.3 mph 24.2 mph N/A   Overcast
7:20 PM 59.0 °F 55.9 °F 90% 30.08 in 10.0 mi ENE 18.4 mph 27.6 mph N/A   Overcast
7:53 PM 59.0 °F 55.9 °F 90% 30.12 in 10.0 mi East 11.5 mph - 0.00 in Rain Light Rain
8:40 PM 57.9 °F 57.0 °F 97% 30.09 in 10.0 mi East 16.1 mph - 0.03 in   Overcast
8:53 PM 57.9 °F 57.0 °F 97% 30.11 in 10.0 mi East 15.0 mph - 0.03 in   Overcast
9:33 PM 57.0 °F 57.0 °F 100% 30.11 in 10.0 mi East 15.0 mph 25.3 mph N/A   Overcast
9:44 PM 57.0 °F 57.0 °F 100% 30.11 in 10.0 mi East 13.8 mph - N/A   Overcast
9:53 PM 57.0 °F 57.0 °F 100% 30.12 in 10.0 mi East 12.7 mph - N/A   Overcast
10:08 PM 57.0 °F 57.0 °F 100% 30.10 in 10.0 mi East 16.1 mph - 0.00 in Rain Light Rain
10:53 PM 57.0 °F 57.0 °F 100% 30.08 in 9.0 mi East 12.7 mph - 0.02 in Rain Light Rain
11:53 PM 57.9 °F 57.9 °F 100% 30.08 in 10.0 mi East 19.6 mph 27.6 mph 0.00 in Rain Light Rain